Location: Alma
(38.7220°N, 88.9090°W)
Time: 01:45:27
(UTC-06:00)

Vanguard 2 Rocket - Pass Details

Date: 21 November 2019
Orbit: 554 x 3326 km, 32.9° (Epoch: 10 December)

Event Time Altitude Azimuth Distance (km) Brightness Sun altitude
Rises 05:22:24 0° 267° (W) 3,446 - -15.9°
Reaches altitude 10° 05:24:52 10° 255° (WSW) 2,768 - -15.4°
Exits shadow 05:25:45 14° 248° (WSW) 2,576 8.7 -15.3°
Maximum altitude 05:30:32 28° 198° (SSW) 2,313 8.9 -14.4°
Drops below altitude 10° 05:39:18 10° 145° (SE) 4,384 11.1 -12.7°
Sets 05:44:28 0° 136° (SE) 5,901 12.2 -11.7°
